Time,TemperatureF,DewpointF,PressureIn,WindDirection,WindDirectionDegrees,WindSpeedMPH,WindSpeedGustMPH,Humidity,HourlyPrecipIn,Conditions,Clouds,dailyrainin,SoftwareType,DateUTC
2013-06-18 00:05:00,64.8,64.2,29.89,SSW,212,0.0,0.0,98,0.00,,,0.00,Wunderground v.1.15,2013-06-18 04:05:00,
2013-06-18 00:15:00,64.7,64.1,29.89,SSW,212,0.0,0.0,98,0.00,,,0.00,Wunderground v.1.15,2013-06-18 04:15:00,
2013-06-18 00:20:00,64.5,63.9,29.89,SSW,212,0.0,0.0,98,0.00,,,0.00,Wunderground v.1.15,2013-06-18 04:20:00,
2013-06-18 00:30:00,64.4,63.8,29.88,SSW,212,0.0,0.0,98,0.00,,,0.01,Wunderground v.1.15,2013-06-18 04:30:00,
2013-06-18 00:40:00,64.3,63.7,29.88,SSW,208,0.0,0.0,98,0.00,,,0.01,Wunderground v.1.15,2013-06-18 04:40:00,
2013-06-18 00:45:00,64.3,63.7,29.88,SSW,208,0.0,0.0,98,0.00,,,0.01,Wunderground v.1.15,2013-06-18 04:45:00,
2013-06-18 00:50:00,64.2,63.6,29.88,SSW,208,0.0,0.0,98,0.00,,,0.01,Wunderground v.1.15,2013-06-18 04:50:00,
2013-06-18 00:55:00,64.3,63.7,29.87,SSW,208,0.0,0.0,98,0.00,,,0.01,Wunderground v.1.15,2013-06-18 04:55:00,
2013-06-18 01:00:00,64.3,64.0,29.87,SSW,208,0.0,0.0,99,0.00,,,0.01,Wunderground v.1.15,2013-06-18 05:00:00,
2013-06-18 01:05:00,64.3,64.0,29.87,SSW,208,0.0,0.0,99,0.00,,,0.02,Wunderground v.1.15,2013-06-18 05:05:00,
2013-06-18 01:15:00,64.2,63.9,29.87,SSW,208,0.0,0.0,99,0.00,,,0.02,Wunderground v.1.15,2013-06-18 05:15:00,
2013-06-18 01:20:00,64.3,64.0,29.87,SSW,208,0.0,0.0,99,0.00,,,0.02,Wunderground v.1.15,2013-06-18 05:20:00,
2013-06-18 01:30:00,64.2,63.9,29.86,SSW,208,0.0,0.0,99,0.00,,,0.03,Wunderground v.1.15,2013-06-18 05:30:00,
2013-06-18 01:35:00,64.2,63.9,29.85,SSW,208,0.0,0.0,99,0.00,,,0.03,Wunderground v.1.15,2013-06-18 05:35:00,
2013-06-18 01:45:00,64.3,64.0,29.85,SSW,208,0.0,0.0,99,0.00,,,0.03,Wunderground v.1.15,2013-06-18 05:45:00,
2013-06-18 01:55:00,64.4,64.1,29.85,SSW,209,0.0,0.0,99,0.00,,,0.04,Wunderground v.1.15,2013-06-18 05:55:00,
2013-06-18 02:00:00,64.4,64.1,29.85,SSW,209,0.0,0.0,99,0.09,,,0.05,Wunderground v.1.15,2013-06-18 06:00:00,
2013-06-18 02:05:00,64.5,64.2,29.85,SSW,209,0.0,0.0,99,0.09,,,0.06,Wunderground v.1.15,2013-06-18 06:05:00,
2013-06-18 02:15:00,64.5,64.2,29.85,SSW,208,0.0,0.0,99,0.11,,,0.07,Wunderground v.1.15,2013-06-18 06:15:00,
2013-06-18 02:20:00,64.5,64.2,29.85,SSW,208,0.0,0.0,99,0.09,,,0.08,Wunderground v.1.15,2013-06-18 06:20:00,
2013-06-18 02:25:00,64.5,64.2,29.85,SSW,208,0.0,0.0,99,0.12,,,0.09,Wunderground v.1.15,2013-06-18 06:25:00,
2013-06-18 02:35:00,64.5,64.2,29.85,SSW,209,0.0,0.0,99,0.12,,,0.11,Wunderground v.1.15,2013-06-18 06:35:00,
2013-06-18 02:45:00,64.4,64.1,29.85,SSW,208,0.0,0.0,99,0.14,,,0.13,Wunderground v.1.15,2013-06-18 06:45:00,
2013-06-18 02:50:00,64.3,64.0,29.85,SSW,208,0.0,0.0,99,0.17,,,0.15,Wunderground v.1.15,2013-06-18 06:50:00,
2013-06-18 03:00:00,64.2,63.9,29.85,SSW,208,0.0,0.0,99,0.15,,,0.17,Wunderground v.1.15,2013-06-18 07:00:00,
2013-06-18 03:05:00,64.2,63.9,29.85,SSW,208,0.0,0.0,99,0.19,,,0.19,Wunderground v.1.15,2013-06-18 07:05:00,
2013-06-18 03:15:00,64.1,63.8,29.85,SSW,208,0.0,1.0,99,0.15,,,0.22,Wunderground v.1.15,2013-06-18 07:15:00,
2013-06-18 03:20:00,64.2,63.9,29.84,SSW,209,0.0,0.0,99,0.18,,,0.23,Wunderground v.1.15,2013-06-18 07:20:00,
2013-06-18 03:25:00,64.1,63.8,29.84,SSW,208,0.0,0.0,99,0.14,,,0.24,Wunderground v.1.15,2013-06-18 07:25:00,
2013-06-18 03:35:00,64.0,63.7,29.84,SSW,208,0.0,0.0,99,0.17,,,0.27,Wunderground v.1.15,2013-06-18 07:35:00,
2013-06-18 03:40:00,64.0,63.7,29.83,SSW,208,0.0,0.0,99,0.14,,,0.28,Wunderground v.1.15,2013-06-18 07:40:00,
2013-06-18 03:50:00,63.9,63.6,29.83,SSW,208,0.0,0.0,99,0.15,,,0.30,Wunderground v.1.15,2013-06-18 07:50:00,
2013-06-18 03:55:00,63.9,63.6,29.83,SSW,209,0.0,0.0,99,0.12,,,0.31,Wunderground v.1.15,2013-06-18 07:55:00,
2013-06-18 04:05:00,63.9,63.6,29.83,SSW,208,0.0,0.0,99,0.12,,,0.34,Wunderground v.1.15,2013-06-18 08:05:00,
2013-06-18 04:15:00,64.0,63.7,29.83,SSW,208,0.0,0.0,99,0.11,,,0.36,Wunderground v.1.15,2013-06-18 08:15:00,
2013-06-18 04:20:00,64.0,63.7,29.83,SSW,208,0.0,0.0,99,0.13,,,0.37,Wunderground v.1.15,2013-06-18 08:20:00,
2013-06-18 04:25:00,64.0,63.7,29.83,SSW,208,0.0,0.0,99,0.10,,,0.38,Wunderground v.1.15,2013-06-18 08:25:00,
2013-06-18 04:35:00,64.0,63.7,29.82,SSW,208,0.0,0.0,99,0.11,,,0.39,Wunderground v.1.15,2013-06-18 08:35:00,
2013-06-18 04:40:00,63.9,63.6,29.82,SSW,208,0.0,0.0,99,0.10,,,0.40,Wunderground v.1.15,2013-06-18 08:40:00,
2013-06-18 04:50:00,63.8,63.5,29.82,SSW,208,0.0,0.0,99,0.08,,,0.42,Wunderground v.1.15,2013-06-18 08:50:00,
2013-06-18 05:00:00,63.8,63.5,29.82,SSW,208,0.0,0.0,99,0.10,,,0.43,Wunderground v.1.15,2013-06-18 09:00:00,
2013-06-18 05:05:00,63.8,63.5,29.82,SSW,208,0.0,0.0,99,0.08,,,0.44,Wunderground v.1.15,2013-06-18 09:05:00,
2013-06-18 05:15:00,63.8,63.5,29.82,SSW,208,0.0,0.0,99,0.09,,,0.45,Wunderground v.1.15,2013-06-18 09:15:00,
2013-06-18 05:25:00,63.8,63.5,29.82,SSW,208,0.0,0.0,99,0.08,,,0.47,Wunderground v.1.15,2013-06-18 09:25:00,
2013-06-18 05:35:00,63.8,63.5,29.82,SSW,208,0.0,0.0,99,0.06,,,0.48,Wunderground v.1.15,2013-06-18 09:35:00,
2013-06-18 05:40:00,63.8,63.5,29.83,SSW,209,0.0,0.0,99,0.06,,,0.48,Wunderground v.1.15,2013-06-18 09:40:00,
2013-06-18 05:50:00,63.8,63.5,29.82,SSW,208,0.0,0.0,99,0.07,,,0.49,Wunderground v.1.15,2013-06-18 09:50:00,
2013-06-18 05:55:00,63.9,63.6,29.82,SSW,209,0.0,0.0,99,0.06,,,0.50,Wunderground v.1.15,2013-06-18 09:55:00,
2013-06-18 06:05:00,63.9,63.6,29.83,SSW,209,0.0,0.0,99,0.07,,,0.51,Wunderground v.1.15,2013-06-18 10:05:00,
2013-06-18 06:15:00,63.9,63.6,29.83,SSW,208,0.0,0.0,99,0.05,,,0.52,Wunderground v.1.15,2013-06-18 10:15:00,
2013-06-18 06:20:00,63.9,63.6,29.83,SSW,209,0.0,0.0,99,0.05,,,0.52,Wunderground v.1.15,2013-06-18 10:20:00,
2013-06-18 06:25:00,63.9,63.6,29.83,SSW,209,0.0,0.0,99,0.06,,,0.53,Wunderground v.1.15,2013-06-18 10:25:00,
2013-06-18 06:30:00,63.9,63.6,29.83,SSW,208,0.0,0.0,99,0.06,,,0.53,Wunderground v.1.15,2013-06-18 10:30:00,
2013-06-18 06:40:00,64.1,63.8,29.84,SSW,208,0.0,0.0,99,0.05,,,0.54,Wunderground v.1.15,2013-06-18 10:40:00,
2013-06-18 06:50:00,64.1,63.8,29.84,SSW,208,0.0,0.0,99,0.05,,,0.55,Wunderground v.1.15,2013-06-18 10:50:00,
2013-06-18 06:55:00,64.2,63.9,29.84,SSW,208,0.0,0.0,99,0.05,,,0.55,Wunderground v.1.15,2013-06-18 10:55:00,
2013-06-18 07:05:00,64.3,64.0,29.84,SSW,209,0.0,0.0,99,0.04,,,0.56,Wunderground v.1.15,2013-06-18 11:05:00,
2013-06-18 07:15:00,64.4,64.1,29.84,SSW,209,0.0,0.0,99,0.05,,,0.57,Wunderground v.1.15,2013-06-18 11:15:00,
2013-06-18 07:25:00,64.5,64.2,29.84,SSW,208,0.0,0.0,99,0.05,,,0.57,Wunderground v.1.15,2013-06-18 11:25:00,
2013-06-18 07:30:00,64.6,64.3,29.84,SSW,209,0.0,0.0,99,0.04,,,0.57,Wunderground v.1.15,2013-06-18 11:30:00,
2013-06-18 07:40:00,64.7,64.4,29.84,SSW,208,0.0,0.0,99,0.04,,,0.58,Wunderground v.1.15,2013-06-18 11:40:00,
2013-06-18 07:45:00,64.8,64.5,29.84,SSW,208,0.0,0.0,99,0.04,,,0.58,Wunderground v.1.15,2013-06-18 11:45:00,
2013-06-18 07:55:00,65.0,65.0,29.84,SSW,208,0.0,0.0,100,0.04,,,0.59,Wunderground v.1.15,2013-06-18 11:55:00,
2013-06-18 08:00:00,65.1,65.1,29.84,SSW,208,0.0,0.0,100,0.04,,,0.59,Wunderground v.1.15,2013-06-18 12:00:00,
2013-06-18 08:05:00,65.2,64.9,29.84,SSW,208,0.0,0.0,99,0.00,,,0.60,Wunderground v.1.15,2013-06-18 12:05:00,
2013-06-18 08:15:00,65.4,65.1,29.85,SSW,208,0.0,0.0,99,0.00,,,0.60,Wunderground v.1.15,2013-06-18 12:15:00,
2013-06-18 08:25:00,65.8,65.8,29.85,SSW,209,0.0,0.0,100,0.00,,,0.61,Wunderground v.1.15,2013-06-18 12:25:00,
2013-06-18 08:30:00,66.0,66.0,29.85,SSW,208,0.0,0.0,100,0.00,,,0.61,Wunderground v.1.15,2013-06-18 12:30:00,
2013-06-18 08:40:00,66.3,66.3,29.85,SSW,209,0.0,0.0,100,0.00,,,0.61,Wunderground v.1.15,2013-06-18 12:40:00,
2013-06-18 08:45:00,66.5,66.5,29.85,SSW,209,0.0,0.0,100,0.00,,,0.61,Wunderground v.1.15,2013-06-18 12:45:00,
2013-06-18 08:55:00,66.9,66.9,29.85,SSW,208,0.0,0.0,100,0.00,,,0.62,Wunderground v.1.15,2013-06-18 12:55:00,
2013-06-18 09:05:00,67.5,67.5,29.84,SSW,208,0.0,0.0,100,0.00,,,0.62,Wunderground v.1.15,2013-06-18 13:05:00,
2013-06-18 09:15:00,67.7,67.7,29.84,SSW,208,0.0,0.0,100,0.00,,,0.63,Wunderground v.1.15,2013-06-18 13:15:00,
2013-06-18 09:20:00,67.7,67.7,29.84,SSW,208,0.0,0.0,100,0.00,,,0.63,Wunderground v.1.15,2013-06-18 13:20:00,
2013-06-18 09:30:00,67.8,67.8,29.84,SSW,209,0.0,0.0,100,0.00,,,0.63,Wunderground v.1.15,2013-06-18 13:30:00,
2013-06-18 09:40:00,68.0,68.0,29.84,SSW,209,0.0,0.0,100,0.00,,,0.63,Wunderground v.1.15,2013-06-18 13:40:00,
2013-06-18 09:45:00,68.3,68.3,29.83,SSW,209,0.0,0.0,100,0.00,,,0.63,Wunderground v.1.15,2013-06-18 13:45:00,
2013-06-18 09:55:00,68.4,68.4,29.83,SSW,209,0.0,0.0,100,0.00,,,0.64,Wunderground v.1.15,2013-06-18 13:55:00,
2013-06-18 10:00:00,68.7,68.7,29.83,SSW,209,0.0,0.0,100,0.00,,,0.64,Wunderground v.1.15,2013-06-18 14:00:00,
2013-06-18 10:05:00,68.9,68.9,29.83,SSW,209,0.0,0.0,100,0.00,,,0.64,Wunderground v.1.15,2013-06-18 14:05:00,
2013-06-18 10:15:00,69.2,69.2,29.83,SSW,208,0.0,0.0,100,0.00,,,0.65,Wunderground v.1.15,2013-06-18 14:15:00,
2013-06-18 10:20:00,69.3,69.3,29.82,SSW,208,0.0,0.0,100,0.00,,,0.65,Wunderground v.1.15,2013-06-18 14:20:00,
2013-06-18 10:30:00,69.4,69.4,29.82,SSW,208,0.0,0.0,100,0.00,,,0.65,Wunderground v.1.15,2013-06-18 14:30:00,
2013-06-18 10:35:00,69.5,69.5,29.82,SSW,209,0.0,0.0,100,0.00,,,0.65,Wunderground v.1.15,2013-06-18 14:35:00,
2013-06-18 10:45:00,69.7,69.7,29.82,SSW,208,0.0,0.0,100,0.00,,,0.66,Wunderground v.1.15,2013-06-18 14:45:00,
2013-06-18 10:55:00,69.9,69.6,29.81,SSW,208,0.0,0.0,99,0.00,,,0.66,Wunderground v.1.15,2013-06-18 14:55:00,
2013-06-18 11:00:00,69.9,69.9,29.81,SSW,208,0.0,0.0,100,0.00,,,0.66,Wunderground v.1.15,2013-06-18 15:00:00,
2013-06-18 11:05:00,70.0,69.7,29.82,SSW,208,0.0,0.0,99,0.00,,,0.66,Wunderground v.1.15,2013-06-18 15:05:00,
2013-06-18 11:15:00,70.3,70.0,29.82,SSW,209,0.0,0.0,99,0.00,,,0.67,Wunderground v.1.15,2013-06-18 15:15:00,
2013-06-18 11:20:00,70.4,70.1,29.82,SSW,209,0.0,0.0,99,0.00,,,0.67,Wunderground v.1.15,2013-06-18 15:20:00,
2013-06-18 11:25:00,70.7,70.4,29.82,SSW,208,0.0,0.0,99,0.00,,,0.67,Wunderground v.1.15,2013-06-18 15:25:00,
2013-06-18 11:35:00,70.9,70.6,29.82,SSW,209,0.0,0.0,99,0.00,,,0.67,Wunderground v.1.15,2013-06-18 15:35:00,
2013-06-18 11:45:00,71.0,70.7,29.82,SSW,209,0.0,0.0,99,0.00,,,0.67,Wunderground v.1.15,2013-06-18 15:45:00,
2013-06-18 11:50:00,71.1,70.8,29.81,SSW,208,0.0,0.0,99,0.00,,,0.67,Wunderground v.1.15,2013-06-18 15:50:00,
2013-06-18 12:00:00,71.2,70.9,29.81,SSW,208,0.0,0.0,99,0.00,,,0.68,Wunderground v.1.15,2013-06-18 16:00:00,
2013-06-18 12:05:00,71.3,71.0,29.81,SSW,209,0.0,0.0,99,0.00,,,0.68,Wunderground v.1.15,2013-06-18 16:05:00,
2013-06-18 12:15:00,71.3,71.0,29.81,SSW,209,0.0,0.0,99,0.00,,,0.68,Wunderground v.1.15,2013-06-18 16:15:00,
2013-06-18 12:20:00,71.3,71.0,29.81,SSW,210,0.0,0.0,99,0.00,,,0.68,Wunderground v.1.15,2013-06-18 16:20:00,
2013-06-18 12:25:00,71.4,71.1,29.81,SSW,209,0.0,0.0,99,0.00,,,0.68,Wunderground v.1.15,2013-06-18 16:25:00,
2013-06-18 12:35:00,71.5,71.2,29.80,SSW,208,0.0,0.0,99,0.00,,,0.69,Wunderground v.1.15,2013-06-18 16:35:00,
2013-06-18 12:40:00,71.4,71.1,29.80,SSW,208,0.0,0.0,99,0.00,,,0.69,Wunderground v.1.15,2013-06-18 16:40:00,
2013-06-18 12:50:00,71.3,71.0,29.79,SSW,208,0.0,0.0,99,0.00,,,0.69,Wunderground v.1.15,2013-06-18 16:50:00,
2013-06-18 13:00:00,71.3,71.0,29.79,SSW,208,0.0,0.0,99,0.00,,,0.69,Wunderground v.1.15,2013-06-18 17:00:00,
2013-06-18 13:05:00,71.4,71.1,29.79,SSW,208,0.0,0.0,99,0.00,,,0.69,Wunderground v.1.15,2013-06-18 17:05:00,
2013-06-18 13:15:00,71.6,71.3,29.79,SSW,209,0.0,0.0,99,0.00,,,0.70,Wunderground v.1.15,2013-06-18 17:15:00,
2013-06-18 13:25:00,71.8,71.5,29.79,SSW,208,0.0,0.0,99,0.00,,,0.70,Wunderground v.1.15,2013-06-18 17:25:00,
2013-06-18 13:35:00,71.8,71.5,29.79,SSW,208,0.0,0.0,99,0.00,,,0.70,Wunderground v.1.15,2013-06-18 17:35:00,
2013-06-18 13:40:00,71.8,71.5,29.79,SSW,208,0.0,0.0,99,0.00,,,0.70,Wunderground v.1.15,2013-06-18 17:40:00,
2013-06-18 13:50:00,71.8,71.5,29.79,SSW,208,0.0,0.0,99,0.00,,,0.70,Wunderground v.1.15,2013-06-18 17:50:00,
2013-06-18 13:55:00,71.7,71.4,29.78,SSW,208,0.0,0.0,99,0.00,,,0.70,Wunderground v.1.15,2013-06-18 17:55:00,
2013-06-18 14:05:00,71.5,71.2,29.79,SSW,208,0.0,0.0,99,0.00,,,0.71,Wunderground v.1.15,2013-06-18 18:05:00,
2013-06-18 14:15:00,71.4,71.1,29.79,SSW,209,0.0,0.0,99,0.00,,,0.71,Wunderground v.1.15,2013-06-18 18:15:00,
2013-06-18 14:20:00,71.3,71.0,29.79,SSW,208,0.0,0.0,99,0.00,,,0.71,Wunderground v.1.15,2013-06-18 18:20:00,
2013-06-18 14:25:00,71.0,70.7,29.79,SSW,208,0.0,0.0,99,0.00,,,0.71,Wunderground v.1.15,2013-06-18 18:25:00,
2013-06-18 14:35:00,71.0,70.7,29.78,SSW,209,0.0,0.0,99,0.00,,,0.71,Wunderground v.1.15,2013-06-18 18:35:00,
2013-06-18 14:40:00,71.2,70.9,29.78,SSW,208,0.0,0.0,99,0.00,,,0.71,Wunderground v.1.15,2013-06-18 18:40:00,
2013-06-18 14:50:00,70.8,70.5,29.79,SSW,208,0.0,0.0,99,0.00,,,0.71,Wunderground v.1.15,2013-06-18 18:50:00,
2013-06-18 14:55:00,70.4,70.1,29.79,SSW,209,0.0,0.0,99,0.00,,,0.71,Wunderground v.1.15,2013-06-18 18:55:00,
2013-06-18 15:05:00,70.1,69.8,29.79,SSW,208,0.0,0.0,99,0.00,,,0.72,Wunderground v.1.15,2013-06-18 19:05:00,
2013-06-18 15:15:00,70.1,69.8,29.79,SSW,209,0.0,0.0,99,0.00,,,0.72,Wunderground v.1.15,2013-06-18 19:15:00,
2013-06-18 15:25:00,70.3,70.0,29.79,SSW,208,0.0,0.0,99,0.00,,,0.72,Wunderground v.1.15,2013-06-18 19:25:00,
2013-06-18 15:30:00,70.3,70.0,29.79,SSW,208,0.0,0.0,99,0.00,,,0.72,Wunderground v.1.15,2013-06-18 19:30:00,
2013-06-18 15:40:00,70.6,70.3,29.79,SSW,208,0.0,0.0,99,0.00,,,0.72,Wunderground v.1.15,2013-06-18 19:40:00,
2013-06-18 15:45:00,70.6,70.3,29.79,SSW,208,0.0,0.0,99,0.00,,,0.72,Wunderground v.1.15,2013-06-18 19:45:00,
2013-06-18 15:55:00,70.6,70.3,29.79,SSW,208,0.0,0.0,99,0.00,,,0.73,Wunderground v.1.15,2013-06-18 19:55:00,
2013-06-18 16:00:00,70.5,70.2,29.79,SSW,209,0.0,0.0,99,0.00,,,0.73,Wunderground v.1.15,2013-06-18 20:00:00,
2013-06-18 16:05:00,70.3,70.0,29.79,SW,221,0.0,0.0,99,0.00,,,0.73,Wunderground v.1.15,2013-06-18 20:05:00,
2013-06-18 16:15:00,70.0,69.7,29.79,SW,221,0.0,0.0,99,0.00,,,0.73,Wunderground v.1.15,2013-06-18 20:15:00,
2013-06-18 16:20:00,69.8,69.5,29.79,SW,221,0.0,0.0,99,0.00,,,0.73,Wunderground v.1.15,2013-06-18 20:20:00,
2013-06-18 16:30:00,69.3,69.0,29.79,SW,221,0.0,0.0,99,0.00,,,0.73,Wunderground v.1.15,2013-06-18 20:30:00,
2013-06-18 16:35:00,68.9,68.6,29.79,SW,221,0.0,0.0,99,0.00,,,0.73,Wunderground v.1.15,2013-06-18 20:35:00,
2013-06-18 16:45:00,68.5,68.2,29.79,SW,221,0.0,0.0,99,0.00,,,0.73,Wunderground v.1.15,2013-06-18 20:45:00,
2013-06-18 16:55:00,68.4,68.1,29.79,SW,221,0.0,0.0,99,0.00,,,0.73,Wunderground v.1.15,2013-06-18 20:55:00,
2013-06-18 17:00:00,68.4,68.1,29.79,SW,221,0.0,0.0,99,0.00,,,0.73,Wunderground v.1.15,2013-06-18 21:00:00,
2013-06-18 17:05:00,68.5,68.2,29.79,SW,221,0.0,0.0,99,0.00,,,0.73,Wunderground v.1.15,2013-06-18 21:05:00,
2013-06-18 17:15:00,68.8,68.5,29.80,SW,221,0.0,0.0,99,0.00,,,0.73,Wunderground v.1.15,2013-06-18 21:15:00,
2013-06-18 17:20:00,68.8,68.5,29.79,SW,220,0.0,0.0,99,0.00,,,0.74,Wunderground v.1.15,2013-06-18 21:20:00,
2013-06-18 17:30:00,68.9,68.6,29.78,SW,221,0.0,0.0,99,0.00,,,0.74,Wunderground v.1.15,2013-06-18 21:30:00,
2013-06-18 17:40:00,69.2,68.9,29.78,SW,221,0.0,0.0,99,0.00,,,0.74,Wunderground v.1.15,2013-06-18 21:40:00,
2013-06-18 17:45:00,69.7,69.7,29.77,SW,221,0.0,0.0,100,0.00,,,0.74,Wunderground v.1.15,2013-06-18 21:45:00,
2013-06-18 17:55:00,70.1,70.1,29.77,SW,220,0.0,0.0,100,0.00,,,0.74,Wunderground v.1.15,2013-06-18 21:55:00,
2013-06-18 18:00:00,69.9,69.9,29.77,SW,221,0.0,0.0,100,0.00,,,0.74,Wunderground v.1.15,2013-06-18 22:00:00,
2013-06-18 18:05:00,70.0,70.0,29.76,SW,221,0.0,0.0,100,0.00,,,0.74,Wunderground v.1.15,2013-06-18 22:05:00,
2013-06-18 18:15:00,70.3,70.0,29.76,SSW,201,1.0,1.0,99,0.00,,,0.74,Wunderground v.1.15,2013-06-18 22:15:00,
2013-06-18 18:20:00,70.5,70.2,29.77,SSW,202,1.0,1.0,99,0.00,,,0.74,Wunderground v.1.15,2013-06-18 22:20:00,
2013-06-18 18:30:00,70.6,70.3,29.77,SSW,202,0.0,0.0,99,0.00,,,0.74,Wunderground v.1.15,2013-06-18 22:30:00,
2013-06-18 18:35:00,70.7,70.4,29.77,SSW,201,0.0,0.0,99,0.00,,,0.74,Wunderground v.1.15,2013-06-18 22:35:00,
2013-06-18 18:45:00,70.7,70.1,29.78,SSW,202,0.0,0.0,98,0.00,,,0.75,Wunderground v.1.15,2013-06-18 22:45:00,
2013-06-18 18:50:00,70.7,70.1,29.78,SSW,202,0.0,0.0,98,0.00,,,0.75,Wunderground v.1.15,2013-06-18 22:50:00,
2013-06-18 19:00:00,70.6,70.0,29.78,SSW,202,0.0,0.0,98,0.00,,,0.75,Wunderground v.1.15,2013-06-18 23:00:00,
2013-06-18 19:05:00,70.5,69.9,29.78,SSW,202,0.0,0.0,98,0.00,,,0.75,Wunderground v.1.15,2013-06-18 23:05:00,
2013-06-18 19:15:00,70.4,69.8,29.78,SSW,203,0.0,0.0,98,0.00,,,0.75,Wunderground v.1.15,2013-06-18 23:15:00,
2013-06-18 19:20:00,70.4,69.8,29.78,SSW,203,0.0,0.0,98,0.00,,,0.75,Wunderground v.1.15,2013-06-18 23:20:00,
2013-06-18 19:25:00,70.2,69.3,29.78,SSW,203,0.0,0.0,97,0.00,,,0.75,Wunderground v.1.15,2013-06-18 23:25:00,
2013-06-18 19:35:00,70.2,69.3,29.78,SSW,202,0.0,0.0,97,0.00,,,0.75,Wunderground v.1.15,2013-06-18 23:35:00,
2013-06-18 19:45:00,70.0,69.1,29.78,SSW,203,0.0,0.0,97,0.00,,,0.75,Wunderground v.1.15,2013-06-18 23:45:00,
2013-06-18 19:50:00,69.8,68.9,29.78,SSW,202,0.0,0.0,97,0.00,,,0.75,Wunderground v.1.15,2013-06-18 23:50:00,
2013-06-18 20:00:00,69.5,68.6,29.79,SSW,202,0.0,0.0,97,0.00,,,0.75,Wunderground v.1.15,2013-06-19 00:00:00,
2013-06-18 20:05:00,69.4,68.5,29.79,SSW,202,0.0,0.0,97,0.00,,,0.75,Wunderground v.1.15,2013-06-19 00:05:00,
2013-06-18 20:15:00,69.2,68.3,29.80,SSW,202,0.0,0.0,97,0.00,,,0.75,Wunderground v.1.15,2013-06-19 00:15:00,
2013-06-18 20:20:00,69.2,68.3,29.80,SSW,202,0.0,0.0,97,0.00,,,0.75,Wunderground v.1.15,2013-06-19 00:20:00,
2013-06-18 20:25:00,69.1,68.5,29.80,SSW,202,0.0,0.0,98,0.00,,,0.75,Wunderground v.1.15,2013-06-19 00:25:00,
2013-06-18 20:35:00,69.0,68.4,29.81,SSW,202,0.0,0.0,98,0.00,,,0.75,Wunderground v.1.15,2013-06-19 00:35:00,
2013-06-18 20:40:00,69.0,68.4,29.81,SSW,202,0.0,0.0,98,0.00,,,0.75,Wunderground v.1.15,2013-06-19 00:40:00,
2013-06-18 20:50:00,68.8,68.2,29.81,SSW,202,0.0,0.0,98,0.00,,,0.75,Wunderground v.1.15,2013-06-19 00:50:00,
2013-06-18 20:55:00,68.6,68.0,29.81,SSW,202,0.0,0.0,98,0.00,,,0.75,Wunderground v.1.15,2013-06-19 00:55:00,
2013-06-18 21:05:00,68.3,67.7,29.82,SSW,202,0.0,0.0,98,0.00,,,0.76,Wunderground v.1.15,2013-06-19 01:05:00,
2013-06-18 21:15:00,68.1,67.5,29.82,SSW,202,0.0,0.0,98,0.00,,,0.76,Wunderground v.1.15,2013-06-19 01:15:00,
2013-06-18 21:25:00,67.9,67.6,29.82,SSW,202,0.0,0.0,99,0.00,,,0.76,Wunderground v.1.15,2013-06-19 01:25:00,
2013-06-18 21:30:00,67.7,67.1,29.83,SSW,202,0.0,0.0,98,0.00,,,0.76,Wunderground v.1.15,2013-06-19 01:30:00,
2013-06-18 21:40:00,67.4,67.1,29.83,SSW,202,0.0,0.0,99,0.00,,,0.76,Wunderground v.1.15,2013-06-19 01:40:00,
2013-06-18 21:50:00,67.4,67.1,29.83,SSW,202,0.0,0.0,99,0.00,,,0.76,Wunderground v.1.15,2013-06-19 01:50:00,
2013-06-18 21:55:00,67.2,66.9,29.84,SSW,202,0.0,0.0,99,0.00,,,0.76,Wunderground v.1.15,2013-06-19 01:55:00,
2013-06-18 22:00:00,67.0,66.7,29.84,SSW,202,0.0,0.0,99,0.00,,,0.76,Wunderground v.1.15,2013-06-19 02:00:00,
2013-06-18 22:05:00,66.9,66.6,29.84,SSW,202,0.0,0.0,99,0.00,,,0.76,Wunderground v.1.15,2013-06-19 02:05:00,
2013-06-18 22:15:00,66.7,66.4,29.84,SSW,202,0.0,0.0,99,0.00,,,0.76,Wunderground v.1.15,2013-06-19 02:15:00,
2013-06-18 22:25:00,66.5,66.2,29.85,SSW,202,0.0,0.0,99,0.00,,,0.76,Wunderground v.1.15,2013-06-19 02:25:00,
2013-06-18 22:30:00,66.3,66.0,29.85,SSW,202,0.0,0.0,99,0.00,,,0.76,Wunderground v.1.15,2013-06-19 02:30:00,
2013-06-18 22:40:00,66.0,65.7,29.85,SSW,202,0.0,0.0,99,0.00,,,0.76,Wunderground v.1.15,2013-06-19 02:40:00,
2013-06-18 22:45:00,65.7,65.4,29.85,SSW,202,0.0,0.0,99,0.00,,,0.76,Wunderground v.1.15,2013-06-19 02:45:00,
2013-06-18 22:55:00,65.2,64.6,29.86,SSW,202,0.0,0.0,98,0.00,,,0.76,Wunderground v.1.15,2013-06-19 02:55:00,
2013-06-18 23:05:00,64.7,64.1,29.86,SSW,202,0.0,0.0,98,0.00,,,0.76,Wunderground v.1.15,2013-06-19 03:05:00,
2013-06-18 23:15:00,64.3,63.7,29.86,SSW,202,0.0,0.0,98,0.00,,,0.76,Wunderground v.1.15,2013-06-19 03:15:00,
2013-06-18 23:25:00,64.0,63.4,29.86,SSW,202,0.0,0.0,98,0.00,,,0.76,Wunderground v.1.15,2013-06-19 03:25:00,
2013-06-18 23:30:00,64.0,63.4,29.86,SSW,202,0.0,0.0,98,0.00,,,0.76,Wunderground v.1.15,2013-06-19 03:30:00,
2013-06-18 23:40:00,63.7,63.4,29.86,SSW,202,0.0,0.0,99,0.00,,,0.76,Wunderground v.1.15,2013-06-19 03:40:00,
2013-06-18 23:45:00,63.6,63.3,29.86,SSW,202,0.0,0.0,99,0.00,,,0.76,Wunderground v.1.15,2013-06-19 03:45:00,
2013-06-18 23:55:00,63.5,63.2,29.86,SSW,202,0.0,0.0,99,0.00,,,0.76,Wunderground v.1.15,2013-06-19 03:55:00,